Regional Weather Roundup
Issued by NWS

Home | Current Version | Previous Version | Graphics & Text | Print | Product List | Glossary On
Versions: 1 2 3 4 5 6 7 8 9 10 11 12 13 14 15 16 17 18 19 20 21 22 23 24 25 26 27 28 29 30 31 32 33 34 35 36 37 38 39 40 41 42 43 44 45 46 47 48 49 50
000
ASUS44 KMEG 250700
RWRTN
TENNESSEE HOURLY STATE WEATHER ROUNDUP
NATIONAL WEATHER SERVICE MEMPHIS TN
200 AM CDT WED MAY 25 2016

TNZ002-004-019-021-049-052-054-088>092-250800-
WEST TENNESSEE

CITY           SKY/WX    TMP DP  RH WIND       PRES   REMARKS
MEMPHIS INTL   CLOUDY    68  64  87 SE7       30.03S
NWS MEMPHIS      N/A     66 N/A N/A MISG        N/A
JACKSON        CLOUDY    67  65  93 W10       30.05R
DYERSBURG      MOCLDY    66  64  94 SW3       30.02F
UNION CITY     MOCLDY    68  66  94 W3        30.04R
PARIS          PTCLDY    64  63  94 CALM      30.03R
LEXINGTON      CLEAR     72  61  68 S5        30.02R
$$

TNZ008-025-027-028-033-062-065-066-250800-
NORTH MIDDLE TENNESSEE

CITY           SKY/WX    TMP DP  RH WIND       PRES   REMARKS
NASHVILLE      PTCLDY    67  56  67 S3        30.07F
CLARKSVILLE    CLOUDY    69  60  73 SE5       30.03F
COOKEVILLE     CLEAR     57  55  94 CALM      30.12S
CROSSVILLE     CLEAR     65  53  65 CALM      30.18S
$$

TNZ061-075-076-078-094-096-097-250800-
SOUTH MIDDLE TENNESSEE

CITY           SKY/WX    TMP DP  RH WIND       PRES   REMARKS
TULLAHOMA      CLEAR     61  57  88 CALM      30.13F
WINCHESTER     CLEAR     61  54  77 SE3       30.14
COLUMBIA       CLEAR     70  70 100 S6        30.05F
SHELBYVILLE    CLEAR     68  55  64 S6        30.11F
$$

TNZ017-018-042-046-047-250800-
NORTHEAST TENNESSEE

CITY           SKY/WX    TMP DP  RH WIND       PRES   REMARKS
TRI CITIES     CLEAR     52  50  93 N3        30.20S
$$

TNZ012-013-036-069-073-074-250800-
CENTRAL EAST TENNESSEE

CITY           SKY/WX    TMP DP  RH WIND       PRES   REMARKS
KNOXVILLE      CLEAR     62  52  69 NE3       30.15S
OAK RIDGE      CLEAR     61  57  87 CALM      30.17S
GATLINBURG     PTCLDY    55  48  76 CALM      30.16S
$$

TNZ083-085-099-250800-
SOUTHEAST TENNESSEE

CITY           SKY/WX    TMP DP  RH WIND       PRES   REMARKS
CHATTANOOGA    CLEAR     65  57  75 CALM      30.15S
$$

SKY/WX REPORTED AS FAIR MEANS FEW OR NO CLOUDS BELOW
12 THOUSAND FEET.





USA.gov is the U.S. government's official web portal to all federal, state and local government web resources and services.